sat.trackr.live / text

‹ back to catalog

STARLINK-5031

NORAD 53889 · 2022-119D

PAYLOAD ACTIVE UNKNOWN

§ Identity

Operator
Country
US
Launch date
2022-09-24
Launch site
AFETR
Launch vehicle
Mass (kg)
RCS (m²)

Purposes: comms

External: N2YO · Heavens-Above · Gunter

§ Orbital elements

Epoch: 2026-05-24T22:33:37.770336Z

Period
95.44 min
Inclination
53.2156°
Eccentricity
0.0001502
Mean motion
15.08829357 rev/d
Perigee alt
538.7 km
Apogee alt
540.8 km
Semi-major
6,917.9 km
B*
-3.2806e-5
RAAN
341.9683°
Arg perigee
91.1295°
Mean anomaly
268.9869°
Rev number
20,319

§ Raw data

STARLINK-50311 53889U 22119D   26144.94002049 -.00000810  00000+0 -32806-4 0  99962 53889  53.2156 341.9683 0001502  91.1295 268.9869 15.08829357203197

JSON: /api/v1/satellites/53889 · /tle

For live sub-satellite position, see the globe view (requires WebGL).

§ Visibility from observer

Set your observer location to see the next 7 days of passes ≥ 10°. The values pass through the URL so the page stays shareable.

No JS? Fill the form by hand. The geolocation button needs JavaScript.